User: anonymous   Login
Location: ???????
(55.7027°N, 37.3832°E)
Time: 17:13:41
(UTC+00:00)
Language:

COSMOS 2428 - Orbit

View from above orbital plane
View from above orbital plane
View from above satellite
View from above satellite

Ground track
Ground track

The orbit is defined by the following mean orbital elements,

1 31792U          26162.26762414 +.00000000 +00000-0 -55969-4 0 00003
2 31792  70.9372   6.9071 0007226 146.3925 213.7656 14.12929247    03
Epoch (UTC): 11 June 2026 06:25:22
Eccentricity: 0.0007226
inclination: 70.9372°
perigee height: 844 km
apogee height: 855 km
right ascension of ascending node: 6.9071°
argument of perigee: 146.3925°
revolutions per day: 14.12929247
mean anomaly at epoch: 213.7656°

The dashed part of the orbit path shows where the satellite is in the earth's shadow,  

DLR